Regional Weather Roundup
Issued by NWS

Home | Current Version | Previous Version | Text Only | Print | Product List | Glossary On
Versions: 1 2 3 4 5 6 7 8 9 10 11 12 13 14 15 16 17 18 19 20 21 22 23 24 25 26 27 28 29 30 31 32 33 34 35 36 37 38 39 40 41 42 43 44 45 46 47 48 49 50
000
ASPQ40 PGUM 301010
RWRPQ
WEATHER ROUNDUP FOR THE MARIANAS AND MICRONESIA
NATIONAL WEATHER SERVICE TIYAN GU
800 PM CHST SUN AUG 30 2015

GUZ001>004-301100-
MARIANA ISLANDS-

CITY           SKY/WX    TMP DP  RH WIND       PRES   REMARKS
GUAM AIRPORT   PTCLDY    81  75  83 CALM      29.84R
ANDERSEN AFB   CLEAR     81  75  83 CALM      29.85R
ROTA AIRPORT   PTCLDY    79  75  89 CALM      29.84R
TINIAN AP      PTCLDY    81  75  83 CALM      29.83R
SAIPAN AP      PTCLDY    81  75  83 NE5       29.84R

$$

PMZ161-301100-
REPUBLIC OF PALAU-

CITY           SKY/WX    TMP DP  RH WIND       PRES   REMARKS
KOROR AP       CLOUDY    82  77  83 W9        29.83R HX  91
KOROR WSO      CLOUDY    82  77  83 W7        29.85R HX  91

$$

PMZ171>174-301100-
FEDERATED STATES OF MICRONESIA-

CITY           SKY/WX    TMP DP  RH WIND       PRES   REMARKS
YAP AIRPORT    MOCLDY    81  75  83 VRB5      29.84R
CHUUK AP       MOCLDY    82  77  83 W10       29.85R HX  91
POHNPEI AP     MOCLDY    82  77  83 NW14      29.85R HX  91
POHNPEI WSO    MOCLDY    81  77  89 W9        29.89R
KOSRAE AP      NOT AVBL

$$

PMZ181-301100-
REPUBLIC OF THE MARSHALL ISLANDS-

CITY           SKY/WX    TMP DP  RH WIND       PRES   REMARKS
KWAJALEIN AP   PTCLDY    84  75  74 N5        29.83S HX  92
MAJURO AP      NOT AVBL
MAJURO WSO     MOCLDY    84  79  84 NW5       29.80R HX  96

$$



USA.gov is the U.S. government's official web portal to all federal, state and local government web resources and services.